Location: Napier
(39.4830°S, 176.9170°E)
Time: 23:33:53
(UTC+13:00)

Cosmos 1763 Rocket - Visible Passes

Search period start: 09 December 2019 00:00
Search period end: 19 December 2019 00:00
Orbit: 734 x 779 km, 74.0° (Epoch: 08 December)

Date Brightness Start Highest point End Pass type
(mag) Time Alt. Az. Time Alt. Az. Time Alt. Az.
09 Dec 6.0 01:13:35 10° W 01:16:28 15° SW 01:19:22 10° SSW visible
09 Dec 4.0 22:53:04 39° ENE 22:53:38 40° ENE 22:58:36 10° SSE visible
10 Dec 5.4 00:33:01 18° W 00:35:34 25° WSW 00:39:58 10° S visible
10 Dec 4.8 22:12:35 21° ENE 22:13:24 22° E 22:17:24 10° SE visible
10 Dec 4.5 23:52:33 28° WNW 23:54:51 44° WSW 23:59:59 10° S visible
11 Dec 5.4 21:32:01 10° ENE 21:33:18 11° E 21:34:45 10° ESE visible
11 Dec 3.5 23:11:59 35° NNW 23:14:17 81° WSW 23:19:41 10° SSE visible
12 Dec 6.3 00:55:33 10° WSW 00:57:01 11° SW 00:58:29 10° SW visible
12 Dec 3.6 22:31:17 28° NNE 22:33:52 55° ENE 22:39:06 10° SSE visible
13 Dec 5.8 00:12:17 10° WNW 00:16:03 19° WSW 00:19:52 10° SSW visible
13 Dec 4.4 21:50:25 17° NNE 21:53:34 29° E 21:58:09 10° SE visible
13 Dec 5.1 23:30:30 10° NW 23:35:15 33° WSW 23:40:06 10° S visible
14 Dec 5.1 21:10:21 10° NE 21:13:24 16° E 21:16:30 10° ESE visible
14 Dec 4.0 22:49:24 10° NNW 22:54:37 60° WSW 22:59:57 10° SSE visible
15 Dec 3.5 22:08:52 10° N 22:14:07 75° ENE 22:19:30 10° SSE visible
15 Dec 6.2 23:53:35 10° W 23:56:34 15° SW 23:59:35 10° SSW visible
16 Dec 4.0 21:28:53 10° N 21:33:46 39° ENE 21:38:44 10° SE visible
16 Dec 5.6 23:11:19 10° WNW 23:15:42 26° WSW 23:20:08 10° S visible
17 Dec 4.6 22:29:55 10° NW 22:34:59 45° WSW 22:40:08 10° S visible
18 Dec 3.6 21:49:07 10° NNW 21:54:24 82° WSW 21:59:49 10° SSE visible
18 Dec 6.6 23:35:27 10° WSW 23:37:07 11° SW 23:38:48 10° SW visible
